Date,TemperatureHighF,TemperatureAvgF,TemperatureLowF,DewpointHighF,DewpointAvgF,DewpointLowF,HumidityHigh,HumidityAvg,HumidityLow,PressureMaxIn,PressureMinIn,WindSpeedMaxMPH,WindSpeedAvgMPH,GustSpeedMaxMPH,PrecipitationSumIn
2013-1-1,105.3,85.8,63.6,68.8,59.4,48.5,93,50,17,29.90,29.69,6,1,16,0.00
2013-1-2,81.4,72.3,65.3,64.9,62.5,59.7,88,72,56,30.06,29.73,6,2,12,0.00
2013-1-3,80.1,71.3,65.2,62.9,60.0,56.8,81,68,55,30.08,29.97,5,1,11,0.00
2013-1-4,92.8,75.8,57.6,64.4,60.3,53.6,97,63,27,30.02,29.88,6,2,13,0.00
2013-1-5,101.3,80.3,59.4,68.0,62.1,54.7,95,60,22,30.01,29.90,5,1,13,0.00
2013-1-6,92.4,77.3,62.2,67.1,64.2,60.2,95,67,40,30.17,30.01,5,2,11,0.00
2013-1-7,90.3,78.0,67.8,67.9,64.9,61.1,84,66,43,30.18,29.94,7,2,16,0.00
2013-1-8,107.1,86.9,61.8,64.2,58.1,48.8,94,47,19,29.92,29.41,6,2,20,0.00
2013-1-9,95.8,79.5,68.5,64.3,57.2,50.6,69,49,26,29.72,29.31,6,3,20,0.00
2013-1-10,77.9,72.1,67.6,62.4,60.0,57.4,80,66,58,29.85,29.71,6,2,15,0.00
2013-1-11,107.9,83.1,61.7,71.5,64.8,57.6,95,60,20,29.85,29.61,5,1,14,0.00
2013-1-12,113.0,86.2,67.4,69.5,64.2,50.1,93,58,13,29.88,29.64,6,1,14,0.24
2013-1-13,86.9,74.1,65.2,69.7,66.8,62.5,94,79,56,29.88,29.66,5,1,11,0.08
2013-1-14,75.0,68.1,63.1,63.7,57.6,49.9,94,71,45,30.13,29.81,7,2,16,0.05
2013-1-15,81.7,70.2,57.5,61.8,58.4,54.6,91,68,42,30.13,29.95,5,2,12,0.00
2013-1-16,99.3,76.5,57.4,66.4,61.6,55.6,97,65,31,29.98,29.80,6,1,18,0.00
2013-1-17,101.2,83.4,65.1,70.9,67.9,61.9,94,62,33,29.89,29.65,9,2,11,0.00
2013-1-18,115.4,91.1,68.2,72.9,65.2,57.7,93,52,16,29.70,29.44,13,2,14,0.02
2013-1-19,76.8,72.0,64.7,65.1,61.5,59.3,89,70,56,29.99,29.71,12,2,12,0.01
2013-1-20,71.1,67.4,64.7,68.5,65.3,62.5,96,93,88,30.03,29.94,2,0,4,0.53
2013-1-21,81.9,73.4,66.7,70.1,67.2,65.8,97,82,62,30.00,29.87,7,1,10,0.00
2013-1-22,96.4,76.3,62.5,71.2,66.4,61.3,97,75,38,29.88,29.71,9,1,11,0.14
2013-1-23,82.1,72.6,65.1,68.4,65.5,63.0,95,79,61,30.02,29.83,9,1,12,0.00
2013-1-24,83.9,74.7,66.1,70.2,67.0,63.2,92,78,62,30.03,29.91,7,1,12,0.00
2013-1-25,90.9,78.3,64.1,72.1,68.5,62.9,97,74,49,29.93,29.77,9,2,12,0.00
2013-1-26,90.9,79.1,67.9,70.8,68.8,65.8,95,73,46,29.88,29.78,15,3,18,0.00
2013-1-27,74.5,71.3,69.4,70.5,68.9,67.2,96,92,83,29.81,29.75,5,0,6,1.73
2013-1-28,70.5,69.7,67.7,69.3,68.4,66.5,97,96,95,29.80,29.61,13,2,22,4.08
2013-1-29,84.4,74.0,66.2,74.6,68.8,63.5,98,85,64,29.83,29.53,10,1,10,0.50
2013-1-30,81.1,72.7,66.2,70.4,66.9,64.1,93,82,67,29.97,29.84,6,1,12,0.00
2013-1-31,95.2,79.0,68.3,73.0,69.3,64.8,94,75,37,29.96,29.70,9,1,11,0.00
2013-2-1,91.0,71.9,63.5,73.4,66.5,61.0,97,85,47,29.73,29.61,8,1,15,0.98
2013-2-2,69.2,62.6,58.0,61.0,57.2,51.8,94,83,66,29.95,29.65,11,2,12,0.56
2013-2-3,76.9,66.3,53.6,59.6,54.9,51.0,92,68,49,30.07,29.89,7,1,10,0.00
2013-2-4,79.8,68.7,57.0,63.3,59.7,55.4,97,75,49,30.23,30.05,10,2,11,0.00
2013-2-5,79.6,68.5,59.2,65.7,60.9,56.6,95,78,56,30.24,30.14,7,1,11,0.05
2013-2-6,82.8,70.6,59.3,64.4,59.9,57.1,97,72,43,30.18,30.03,9,1,10,0.00
2013-2-7,85.6,72.0,55.8,64.7,59.6,54.4,97,68,38,30.08,29.95,9,1,11,0.00
2013-2-8,93.3,75.3,56.2,67.5,61.5,54.8,97,67,31,30.07,29.95,6,1,8,0.00
2013-2-9,95.1,77.5,60.0,72.2,65.3,58.6,97,70,36,30.03,29.86,5,1,8,0.00
2013-2-10,98.0,78.2,66.5,73.1,67.8,63.1,96,73,35,30.11,29.88,9,1,12,0.69
2013-2-11,74.3,68.6,63.2,66.9,65.0,62.0,97,89,76,30.10,30.02,4,1,7,0.06
2013-2-12,78.4,68.7,65.4,68.7,64.9,62.2,96,88,71,30.18,30.04,10,1,11,0.40
2013-2-13,76.7,68.4,59.5,65.8,61.1,57.2,96,79,53,30.24,30.14,7,1,12,0.06
2013-2-14,81.7,69.4,56.2,64.6,59.7,54.8,97,74,46,30.19,30.08,9,1,10,0.00
2013-2-15,77.9,69.2,61.0,67.1,62.7,58.9,96,81,57,30.17,30.09,10,1,12,0.04
2013-2-16,81.8,70.5,60.1,66.1,62.0,58.7,96,76,49,30.17,30.09,11,2,12,0.00
2013-2-17,80.4,70.2,61.7,65.6,61.6,58.5,97,76,50,30.17,30.08,8,1,12,0.01
2013-2-18,81.6,69.5,58.5,68.3,61.8,57.1,96,78,49,30.12,29.99,7,1,15,0.07
2013-2-19,87.0,72.2,59.7,68.5,63.8,58.6,97,77,48,30.02,29.89,9,1,11,0.01
2013-2-20,83.3,72.6,62.8,69.6,65.1,61.6,97,79,52,30.05,29.93,13,2,13,0.22
2013-2-21,82.3,72.0,63.5,69.6,65.9,62.4,97,82,58,30.05,29.99,10,2,13,0.50
2013-2-22,77.3,69.1,64.6,68.6,64.5,62.0,93,86,65,30.04,29.96,10,2,20,0.78
2013-2-23,76.2,70.4,66.0,72.7,68.2,63.0,95,93,87,29.97,29.68,15,4,19,2.70
2013-2-24,90.2,77.1,66.2,74.7,70.8,65.3,98,83,53,29.96,29.78,10,1,13,0.00
2013-2-25,88.0,76.9,66.8,75.2,70.2,65.6,97,81,61,30.05,29.93,8,2,13,0.00
2013-2-26,83.8,75.8,68.8,70.8,67.9,64.9,92,77,59,30.06,29.96,13,2,16,0.00
2013-2-27,87.0,75.3,64.3,69.4,65.5,62.5,95,74,47,30.01,29.82,7,1,10,0.00
2013-2-28,88.8,73.5,63.7,71.6,66.3,62.5,97,80,52,29.86,29.70,14,1,14,0.69
2013-3-1,66.5,64.3,61.7,64.4,62.2,59.4,96,93,90,30.04,29.79,13,3,16,2.32
2013-3-2,64.9,63.1,60.9,63.4,61.1,58.6,95,93,91,30.14,30.02,8,2,11,1.27
2013-3-3,76.1,69.5,64.6,65.3,63.7,62.1,95,83,65,30.14,30.07,13,2,14,0.08
2013-3-4,77.7,69.6,60.2,65.9,62.5,58.5,95,79,59,30.17,30.10,8,2,13,0.00
2013-3-5,78.7,70.6,60.2,65.7,62.6,58.3,97,77,58,30.16,30.08,9,2,14,0.00
2013-3-6,82.5,72.1,61.7,67.5,62.9,58.8,97,75,49,30.14,30.03,7,1,10,0.00
2013-3-7,83.3,71.1,58.7,67.0,61.8,57.6,98,75,43,30.13,30.01,7,1,10,0.00
2013-3-8,81.3,70.9,58.5,65.6,62.0,57.1,97,75,48,30.18,30.09,8,2,11,0.00
2013-3-9,84.7,73.7,66.3,66.8,63.8,60.1,91,73,47,30.16,30.05,7,1,9,0.00
2013-3-10,84.2,71.5,59.5,66.2,62.8,58.3,97,76,49,30.13,30.01,11,1,11,0.00
2013-3-11,82.5,71.4,61.4,68.1,64.1,60.0,96,79,57,30.14,30.05,9,1,11,0.00
2013-3-12,81.7,70.2,59.6,68.2,61.9,58.4,97,77,49,30.15,30.01,10,1,10,0.00
2013-3-13,83.9,70.3,55.8,66.7,61.3,54.7,98,76,46,30.04,29.82,9,1,9,0.00
2013-3-14,82.7,70.1,57.8,68.4,63.4,56.6,97,81,56,29.95,29.80,7,1,9,0.01
2013-3-15,77.8,70.0,65.1,70.1,66.6,63.3,95,89,74,30.04,29.92,6,0,9,0.07
2013-3-16,90.3,75.0,63.0,71.3,67.2,61.8,97,79,48,30.01,29.73,10,1,10,0.00
2013-3-17,76.8,70.7,63.0,68.0,57.1,49.8,92,64,42,30.08,29.75,14,1,14,0.00
2013-3-18,73.8,64.4,55.4,57.3,54.8,50.4,93,73,52,30.20,30.07,8,1,8,0.04
2013-3-19,76.8,64.1,52.4,61.8,55.8,50.9,97,77,52,30.29,30.17,9,1,9,0.00
2013-3-20,79.3,66.4,54.6,63.1,58.6,53.5,97,78,51,30.28,30.14,9,1,11,0.01
2013-3-21,83.3,68.6,53.0,65.4,59.0,51.6,97,74,45,30.18,29.93,9,1,9,0.00
2013-3-22,89.2,75.9,61.4,70.0,64.9,59.7,97,71,49,30.00,29.91,20,1,20,0.00
2013-3-23,88.4,77.9,68.5,68.8,64.9,59.8,89,65,47,30.02,29.90,11,1,14,0.01
2013-3-24,91.2,75.6,63.3,71.8,64.7,55.6,97,73,32,30.01,29.84,10,1,10,0.00
2013-3-25,86.0,72.3,59.1,64.9,60.8,55.2,96,71,40,30.09,29.95,9,1,9,0.00
2013-3-26,85.3,74.0,63.6,71.0,67.1,61.7,95,80,59,30.11,29.97,6,0,6,0.00
2013-3-27,90.5,75.0,60.8,72.1,66.3,59.7,98,77,47,30.10,29.96,8,1,8,0.00
2013-3-28,91.0,76.0,61.7,70.0,65.2,60.5,97,73,43,30.05,29.87,10,1,10,0.09
2013-3-29,69.8,69.3,69.0,67.9,67.6,67.2,94,94,94,29.97,29.94,1,0,1,0.03
2013-3-30,79.3,64.8,50.7,60.9,56.4,49.3,97,76,50,30.09,29.86,7,0,7,0.00
2013-3-31,80.4,66.2,58.3,60.5,57.3,51.5,96,76,42,30.00,29.81,9,0,10,0.00
2013-4-1,78.8,66.9,58.2,63.4,59.6,55.9,95,79,54,30.06,29.97,8,1,8,0.01
2013-4-2,81.3,66.7,53.0,62.0,56.2,50.9,98,74,36,30.03,29.91,8,0,9,0.00
2013-4-3,73.4,63.4,57.1,63.7,59.4,55.1,97,87,70,30.25,30.03,10,1,10,0.02
2013-4-4,70.5,62.9,57.8,63.3,59.3,55.1,95,88,72,30.40,30.25,10,0,10,0.46
2013-4-5,75.0,65.4,56.7,62.2,57.8,54.3,97,78,51,30.43,30.34,12,1,12,0.00
2013-4-6,75.7,63.0,53.7,62.4,57.5,52.6,97,84,57,30.37,30.22,10,1,10,0.00
2013-4-7,76.8,62.3,52.7,63.4,57.8,51.9,97,87,55,30.27,30.16,8,0,8,0.01
2013-4-8,77.3,62.1,51.3,64.1,57.2,50.4,97,86,54,30.29,30.20,7,0,9,0.13
2013-4-9,74.0,62.3,54.8,64.3,59.2,53.8,98,90,66,30.31,30.22,7,0,7,0.38
2013-4-10,76.0,64.0,52.5,62.6,57.2,51.6,98,81,53,30.27,30.15,8,1,8,0.01
2013-4-11,54.1,52.7,51.8,52.8,51.6,50.6,97,96,95,30.19,30.16,0,0,0,0.00
2013-4-15,87.0,66.8,52.2,63.6,57.4,51.3,97,76,35,29.87,29.73,3,0,7,0.15
2013-4-16,70.9,63.8,59.1,62.4,59.8,57.4,97,87,71,29.98,29.83,3,0,7,0.08
2013-4-17,74.7,64.0,53.4,62.3,57.9,52.3,97,82,59,30.02,29.92,8,0,8,0.00
2013-4-18,78.0,63.8,51.5,63.0,57.3,50.7,98,82,48,29.98,29.86,5,0,5,0.01
2013-4-19,68.3,59.3,49.7,56.9,48.8,42.4,97,71,46,29.97,29.87,12,1,12,0.00
2013-4-20,58.4,56.5,54.8,57.0,52.1,40.5,96,86,56,30.00,29.86,9,1,12,1.69
2013-4-21,69.8,58.4,48.1,55.2,51.2,46.5,95,78,47,30.03,29.89,7,0,7,0.01
2013-4-22,77.5,61.5,52.5,57.7,52.8,48.7,96,77,38,29.89,29.74,8,0,8,0.02
2013-4-23,76.9,59.8,43.6,54.8,49.2,42.5,97,72,40,30.00,29.87,10,1,10,0.00
2013-4-24,75.7,58.7,44.1,54.9,48.8,42.9,97,74,36,30.11,29.99,7,0,8,0.00
2013-4-25,74.3,57.1,44.6,53.4,48.2,43.5,97,76,39,30.20,30.09,6,0,6,0.00
2013-4-26,78.5,58.2,41.0,53.3,47.8,39.8,97,73,35,30.26,30.10,6,0,6,0.01
2013-4-27,78.3,59.7,42.8,56.8,50.4,41.7,97,75,40,30.22,30.05,6,0,6,0.00
2013-4-28,83.1,62.3,44.9,55.4,49.8,43.8,98,70,30,30.13,30.02,10,0,10,0.00
2013-4-29,83.5,62.9,44.5,62.2,51.7,43.4,97,72,33,30.22,30.10,4,0,4,0.00
2013-4-30,77.4,64.4,54.4,66.5,59.9,53.3,97,86,60,30.28,30.16,6,0,6,0.01
2013-5-1,84.0,69.4,58.4,64.8,59.5,53.0,98,75,38,30.17,29.92,9,0,9,0.00
2013-5-2,68.4,61.0,51.5,60.3,50.1,45.5,90,69,45,30.33,30.07,9,1,9,0.00
2013-5-3,72.8,55.7,42.7,53.8,48.7,41.6,98,80,47,30.34,30.12,6,0,6,0.00
2013-5-4,78.2,61.7,43.9,57.5,49.2,42.8,97,67,34,30.24,30.02,13,1,13,0.00
2013-5-5,67.8,58.0,46.5,51.1,48.4,43.8,93,71,52,30.26,30.16,6,0,6,0.00
2013-5-6,68.2,54.6,41.4,54.1,48.3,40.3,97,81,56,30.32,30.23,7,1,8,0.00
2013-5-7,68.3,58.6,49.6,59.6,54.0,47.9,96,85,66,30.40,30.30,6,0,6,0.00
2013-5-8,70.3,56.1,45.2,59.5,52.0,44.4,98,87,66,30.46,30.35,6,0,6,0.01
2013-5-9,72.3,57.2,46.2,58.3,51.1,45.3,98,83,50,30.45,30.35,6,0,6,0.01
2013-5-10,72.7,56.2,41.8,57.1,50.3,41.0,98,83,52,30.46,30.35,5,0,5,0.00
2013-5-11,69.5,59.7,49.2,62.0,56.1,48.0,97,88,74,30.44,30.33,6,0,6,0.01
2013-5-12,73.0,58.2,47.1,59.3,53.8,46.3,98,86,61,30.35,30.19,8,0,8,0.00
2013-5-13,71.6,57.1,46.8,60.0,53.3,46.0,98,88,58,30.17,29.95,5,0,5,0.01
2013-5-14,67.0,60.5,50.5,58.8,56.2,49.1,95,86,68,29.95,29.84,5,0,6,0.09
2013-5-15,67.3,52.2,36.2,49.0,43.2,35.3,98,75,46,29.99,29.85,14,1,14,0.01
2013-5-16,69.4,60.4,51.1,50.8,46.6,44.7,79,61,44,29.91,29.78,13,2,16,0.00
2013-5-17,67.0,56.6,49.2,47.9,43.7,38.6,86,64,37,29.96,29.85,15,2,17,0.00
2013-5-18,66.8,54.4,38.7,45.3,40.5,35.8,92,62,38,30.00,29.89,12,1,12,0.00
2013-5-19,65.2,51.3,34.9,43.4,38.6,32.5,95,65,39,30.07,29.98,12,1,12,0.00
2013-5-20,67.2,49.3,33.7,47.4,40.7,31.4,94,75,45,30.12,29.99,9,0,9,0.00
2013-5-21,71.8,54.3,37.4,48.5,42.8,35.8,96,69,39,30.06,29.92,15,1,15,0.00
2013-5-22,61.1,52.2,43.8,54.2,48.1,41.9,95,86,70,29.99,29.80,4,0,4,0.24
2013-5-23,59.7,54.3,50.9,57.2,52.6,49.2,96,94,90,29.98,29.80,7,0,8,0.88
2013-5-24,64.9,57.0,52.7,56.8,52.9,50.4,96,87,66,30.12,29.99,12,1,12,0.22
2013-5-25,67.3,57.7,47.1,54.8,51.5,45.7,95,81,61,30.25,30.14,10,0,10,0.02
2013-5-26,67.8,49.6,35.7,50.7,44.4,34.8,98,85,48,30.32,30.21,4,0,4,0.01
2013-5-27,59.8,49.5,37.7,56.3,47.6,36.8,98,93,80,30.44,30.27,2,0,3,0.07
2013-5-28,64.7,56.4,48.4,59.4,54.2,47.6,98,92,77,30.51,30.41,7,0,8,0.02
2013-5-29,69.8,56.0,49.0,59.3,52.9,47.8,97,90,66,30.47,30.36,4,0,4,0.01
2013-5-30,70.5,53.8,40.7,57.2,49.3,39.9,98,87,55,30.43,30.30,5,0,5,0.01
2013-5-31,74.3,55.6,41.9,56.8,50.0,41.1,98,84,51,30.39,30.24,5,0,5,0.00
2013-6-1,69.6,56.9,47.1,57.1,52.2,46.3,97,86,62,30.23,29.96,10,0,10,0.03
2013-6-2,60.2,56.0,52.1,58.0,52.7,46.7,96,89,77,29.99,29.68,17,1,17,0.85
2013-6-3,65.3,53.9,44.1,46.9,43.6,40.5,95,69,50,30.18,30.02,9,1,10,0.00
2013-6-4,69.3,51.1,37.7,53.9,46.0,36.7,97,84,57,30.33,30.22,4,0,5,0.01
2013-6-5,63.7,50.2,40.2,55.9,47.6,39.3,97,91,73,30.33,30.20,4,0,4,0.00
2013-6-6,64.3,54.7,46.7,55.6,51.3,45.8,97,89,71,30.26,30.15,5,0,5,0.00
2013-6-7,72.4,61.6,52.9,61.5,56.4,49.8,96,84,66,30.25,30.08,12,1,15,0.00
2013-6-8,63.3,55.5,44.1,56.1,51.2,42.8,96,86,70,30.44,30.29,6,0,7,0.00
2013-6-9,65.6,53.4,43.3,56.1,49.8,42.5,97,88,68,30.38,30.22,6,0,6,0.01
2013-6-10,67.8,53.0,42.6,58.2,50.4,41.8,98,92,69,30.22,30.09,6,0,7,0.03
2013-6-11,70.1,53.3,41.9,56.1,49.3,41.1,98,87,60,30.17,30.04,4,0,4,0.01
2013-6-12,61.5,52.3,45.8,58.1,51.3,45.0,98,96,86,30.04,29.83,6,0,6,0.46
2013-6-13,65.0,54.4,45.1,56.6,50.3,44.3,98,87,62,29.81,29.69,23,1,23,0.00
2013-6-14,63.7,55.4,48.0,51.2,49.1,45.8,96,80,60,29.76,29.67,17,1,17,0.00
2013-6-15,64.9,56.2,50.4,48.2,46.8,42.8,89,72,52,29.92,29.75,8,1,13,0.00
2013-6-16,61.4,49.9,41.5,46.6,43.4,39.6,95,80,57,29.99,29.88,2,0,6,0.00
2013-6-17,60.4,48.4,32.5,48.8,42.9,31.5,97,83,63,29.87,29.79,3,0,8,0.01
2013-6-18,63.9,50.5,37.3,47.2,43.6,35.9,97,79,51,30.01,29.87,4,0,10,0.00
2013-6-19,60.3,53.3,48.2,48.3,45.7,42.6,91,76,59,30.23,30.03,4,1,10,0.01
2013-6-20,59.6,51.0,44.7,49.3,44.8,40.7,95,80,67,30.25,30.13,2,0,7,0.00
2013-6-21,60.4,47.9,40.6,51.0,44.6,39.5,97,89,70,30.17,30.09,2,0,6,0.00
2013-6-22,60.4,46.3,34.3,50.3,42.9,33.3,97,89,67,30.30,30.20,3,0,9,0.02
2013-6-23,59.9,51.6,45.0,52.6,48.9,43.4,97,91,73,30.36,30.27,3,0,8,0.06
2013-6-24,62.9,52.9,44.1,50.2,47.1,41.1,97,82,59,30.25,30.00,2,0,6,0.01
2013-6-25,59.8,47.9,37.3,50.6,44.1,36.0,97,87,70,30.03,29.96,2,0,6,0.00
2013-6-26,64.1,55.1,44.6,58.7,52.4,43.8,98,91,76,30.14,30.02,4,1,17,0.08
2013-6-27,59.2,56.1,51.8,57.7,55.0,50.6,97,96,93,30.19,30.12,1,0,5,0.55
2013-6-28,63.0,55.2,49.8,58.7,53.9,49.3,98,95,85,30.24,30.16,3,0,8,0.39
2013-6-29,59.6,56.1,52.4,57.0,54.7,51.9,98,95,89,30.25,30.17,3,0,6,0.50
2013-6-30,59.8,54.3,50.3,56.2,52.5,48.9,97,94,84,30.27,30.20,2,0,7,0.08
2013-7-1,62.6,54.9,48.3,56.5,51.8,47.5,97,90,77,30.24,30.17,2,0,7,0.01
2013-7-2,65.6,52.0,42.2,54.6,48.3,41.4,98,88,66,30.26,30.15,2,0,6,0.01
2013-7-3,64.5,48.1,35.6,52.6,44.9,34.8,98,90,60,30.28,30.16,2,0,6,0.01
2013-7-4,71.8,52.0,35.1,54.7,45.7,34.3,98,82,53,30.14,29.91,6,1,19,0.01
2013-7-5,70.2,56.2,43.5,52.3,43.6,30.3,98,67,36,30.05,29.85,4,1,14,0.00
2013-7-6,61.7,47.7,32.5,40.8,36.2,30.4,95,67,42,30.22,30.08,3,1,11,0.00
2013-7-7,63.0,45.2,31.6,43.7,37.3,29.4,95,76,42,30.39,30.26,2,0,6,0.00
2013-7-8,64.1,43.7,29.1,45.6,37.7,28.1,98,82,41,30.51,30.41,2,0,7,0.00
2013-7-9,56.5,46.1,34.8,51.8,44.0,33.5,97,92,76,30.58,30.48,2,0,5,0.06
2013-7-10,58.8,49.7,42.4,53.0,47.3,41.3,97,92,75,30.54,30.46,1,0,3,0.01
2013-7-11,64.6,51.1,40.4,53.8,47.4,39.6,98,88,64,30.58,30.47,2,0,5,0.00
2013-7-12,63.9,48.9,39.9,54.6,46.6,39.1,98,92,70,30.49,30.34,2,0,5,0.01
2013-7-13,64.9,50.0,36.7,55.7,46.5,35.9,98,89,66,30.41,30.33,2,0,8,0.01
2013-7-14,65.4,51.6,40.8,55.0,47.6,40.0,98,88,63,30.37,30.28,3,0,6,0.01
2013-7-15,66.0,55.9,49.6,58.1,52.8,48.6,97,90,66,30.29,30.20,2,0,8,0.02
2013-7-16,69.3,58.4,51.2,58.2,54.2,50.4,98,87,65,30.29,30.21,3,0,10,0.00
2013-7-17,73.6,57.9,48.5,57.9,53.1,47.4,98,86,54,30.27,30.16,3,0,10,0.01
2013-7-18,72.2,57.1,44.0,59.5,52.4,43.2,98,86,56,30.24,30.09,2,0,7,0.01
2013-7-19,68.0,56.2,47.9,57.8,53.5,46.9,98,91,67,30.08,29.91,4,0,11,0.04
2013-7-20,68.6,59.6,53.9,57.8,50.5,38.6,95,75,44,29.90,29.72,6,2,17,0.07
2013-7-21,60.7,49.7,35.5,40.3,36.3,32.5,94,63,37,30.08,29.92,6,1,19,0.00
2013-7-22,62.2,46.7,30.7,41.9,34.6,29.2,96,67,37,30.15,30.06,5,1,20,0.00
2013-7-23,61.9,49.9,33.2,44.1,38.3,30.0,93,66,45,30.19,30.07,5,1,13,0.00
2013-7-24,63.0,52.2,40.4,47.7,42.7,37.1,92,71,55,30.37,30.22,4,1,10,0.00
2013-7-25,63.2,47.7,37.3,48.0,42.0,36.0,96,83,51,30.44,30.32,2,0,5,0.00
2013-7-26,68.1,47.4,33.9,47.8,39.9,32.9,98,79,40,30.35,30.24,4,0,12,0.00
2013-7-27,65.7,48.9,32.7,50.6,42.5,31.7,97,81,53,30.47,30.34,3,0,7,0.00
2013-7-28,65.1,49.5,37.3,53.5,45.3,36.3,97,87,60,30.45,30.31,2,0,5,0.01
2013-7-29,72.8,51.7,36.9,51.7,44.6,35.8,98,80,42,30.33,30.16,3,0,8,0.00
2013-7-30,71.0,54.1,41.0,53.0,47.4,39.6,98,80,51,30.17,30.05,2,0,7,0.00
2013-7-31,63.7,56.7,47.0,55.2,51.2,45.1,93,83,63,30.23,30.12,4,1,11,0.02
2013-8-1,65.5,50.9,37.1,51.7,45.4,36.2,98,83,55,30.23,30.11,2,0,6,0.00
2013-8-2,69.2,50.1,37.4,52.7,42.7,36.4,97,80,40,30.13,29.93,6,1,13,0.00
2013-8-3,67.5,54.7,41.9,46.1,41.3,38.6,90,63,39,30.05,29.90,4,1,11,0.00
2013-8-4,67.0,55.5,47.6,47.4,41.7,36.6,76,61,41,30.04,29.91,4,2,16,0.00
2013-8-5,66.8,54.1,41.6,44.7,40.7,37.1,86,62,42,30.10,29.97,4,1,13,0.00
2013-8-6,73.0,57.5,37.5,45.7,41.6,34.8,94,59,30,30.03,29.81,6,2,22,0.00
2013-8-7,70.3,56.2,47.0,52.4,47.7,42.0,94,75,47,29.93,29.77,3,0,8,0.31
2013-8-8,57.7,52.6,47.9,49.7,45.5,40.3,97,78,57,29.98,29.70,5,2,13,0.04
2013-8-9,64.7,54.6,40.9,47.5,42.5,37.3,89,65,47,30.11,29.95,3,1,8,0.00
2013-8-10,75.3,60.3,47.8,48.0,43.8,39.3,89,57,36,30.04,29.94,4,1,16,0.00
2013-8-11,74.8,55.4,34.9,50.8,44.1,33.3,97,69,41,30.08,29.91,2,0,8,0.00
2013-8-12,80.7,59.0,39.6,52.7,45.0,38.5,98,66,27,29.91,29.63,9,2,26,0.00
2013-8-13,71.0,54.2,38.5,41.9,37.8,33.1,91,58,27,30.02,29.90,5,1,15,0.00
2013-8-14,74.5,56.0,41.3,42.1,37.5,32.7,89,55,24,30.00,29.80,4,1,13,0.00
2013-8-15,65.0,56.0,39.9,40.9,35.2,28.8,87,48,26,30.20,29.82,8,2,22,0.00
2013-8-16,70.3,49.5,29.8,48.8,38.7,28.5,97,71,36,30.26,30.00,3,0,6,0.00
2013-8-17,72.0,56.7,40.6,56.1,47.8,37.0,97,75,43,29.95,29.78,6,2,24,0.00
2013-8-18,72.0,55.6,35.1,44.9,38.7,32.5,93,57,28,30.08,29.92,4,1,12,0.00
2013-8-19,72.6,60.3,42.6,42.6,37.0,32.4,82,43,30,29.94,29.73,7,3,19,0.00
2013-8-20,62.4,51.9,39.8,36.7,31.7,26.3,76,48,31,30.02,29.88,6,2,15,0.00
2013-8-21,65.0,49.1,35.3,39.0,34.3,28.8,80,59,33,30.06,29.93,4,1,12,0.00
2013-8-22,64.4,52.4,37.1,40.8,37.3,32.0,85,59,36,30.02,29.86,4,1,15,0.00
2013-8-23,67.3,57.8,49.5,44.5,41.4,38.8,70,55,41,29.97,29.84,8,3,21,0.00
2013-8-24,73.3,60.2,48.7,50.5,47.3,43.7,91,64,40,30.22,29.99,4,1,14,0.00
2013-8-25,77.5,56.7,37.6,52.3,44.8,36.6,97,70,31,30.29,30.12,3,1,11,0.00
2013-8-26,73.0,54.4,35.6,49.9,43.3,34.3,97,70,35,30.28,30.11,2,0,6,0.00
2013-8-27,74.8,56.8,41.3,50.9,47.0,40.2,97,74,39,30.20,30.05,2,0,7,0.00
2013-8-28,74.4,57.0,39.7,52.8,45.9,38.7,97,71,35,30.22,30.10,3,1,10,0.00
2013-8-29,72.8,58.4,43.8,56.2,48.8,42.4,97,74,43,30.25,30.07,4,1,10,0.00
2013-8-30,83.2,66.4,49.4,57.7,51.2,40.4,97,64,32,30.07,29.87,5,1,15,0.00
2013-8-31,78.2,61.4,46.3,52.6,46.0,39.9,87,62,29,30.26,30.03,4,1,12,0.00
2013-9-1,75.0,59.0,40.9,58.0,47.9,39.6,97,71,40,30.40,30.27,4,1,9,0.00
2013-9-2,74.8,59.4,45.0,58.2,49.6,41.9,98,74,37,30.47,30.37,3,1,9,0.00
2013-9-3,74.1,59.9,44.8,58.9,52.0,43.7,98,78,51,30.54,30.43,4,1,10,0.00
2013-9-4,75.5,60.1,43.4,56.5,50.2,42.3,98,74,37,30.52,30.35,4,1,8,0.00
2013-9-5,83.7,62.0,41.6,55.8,47.9,40.3,98,66,30,30.40,30.23,4,1,10,0.00
2013-9-6,82.7,65.2,46.9,60.9,52.6,44.9,96,68,33,30.33,30.19,4,0,8,0.00
2013-9-7,86.5,67.9,50.6,58.0,49.8,40.8,97,61,21,30.24,30.08,3,1,12,0.00
2013-9-8,74.1,64.6,55.7,62.5,58.5,53.4,94,81,64,30.27,30.17,4,1,10,0.00
2013-9-9,79.0,69.0,61.0,63.5,60.2,57.1,92,75,49,30.23,29.90,3,0,8,0.00
2013-9-10,86.8,73.4,55.6,55.9,48.9,39.8,96,47,20,29.86,29.58,7,2,21,0.00
2013-9-11,79.4,65.8,51.1,43.7,39.4,29.0,69,41,20,29.93,29.75,4,1,13,0.00
2013-9-12,78.1,62.9,42.0,48.1,42.7,38.0,89,51,27,30.01,29.83,4,1,11,0.00
2013-9-13,65.2,57.5,51.1,49.8,46.9,43.4,77,68,56,30.18,30.04,4,1,10,0.00
2013-9-14,78.5,64.3,54.1,60.5,54.8,49.0,95,74,36,29.97,29.77,5,1,13,0.16
2013-9-15,71.4,58.8,46.5,56.5,51.8,45.1,97,79,55,30.09,29.97,4,1,10,0.00
2013-9-16,63.3,56.5,47.4,58.9,53.9,46.0,96,91,77,30.05,29.68,4,1,10,0.53
2013-9-17,72.3,62.4,55.8,60.1,56.1,51.6,97,81,60,29.62,29.53,5,2,16,0.14
2013-9-18,77.0,65.6,56.5,57.2,51.0,42.6,89,63,33,29.66,29.57,8,2,22,0.00
2013-9-19,75.3,64.5,47.3,49.4,43.0,37.8,89,48,28,29.80,29.61,6,2,18,0.00
2013-9-20,72.6,60.8,49.5,46.0,40.0,30.4,72,49,22,29.91,29.70,8,2,21,0.00
2013-9-21,75.3,58.5,42.8,48.9,44.5,39.1,88,63,33,29.99,29.86,4,1,8,0.00
2013-9-22,79.3,61.3,41.2,54.2,47.3,37.1,97,66,22,29.99,29.85,4,1,10,0.00
2013-9-23,88.5,67.5,45.2,57.4,45.8,33.8,98,56,15,29.94,29.71,6,1,17,0.02
2013-9-24,90.4,69.7,52.1,54.7,45.9,36.7,84,50,17,29.79,29.54,5,1,15,0.00
2013-9-25,91.7,73.0,50.3,53.1,47.7,42.9,83,45,19,29.85,29.70,4,1,11,0.00
2013-9-26,92.8,71.3,47.2,55.4,43.6,28.5,94,46,15,29.97,29.62,9,2,24,0.00
2013-9-27,78.8,61.8,40.8,43.7,38.0,30.6,82,45,18,30.15,29.98,6,1,13,0.00
2013-9-28,86.9,66.8,40.4,53.1,36.9,23.8,96,47,11,29.96,29.72,8,2,24,0.00
2013-9-29,80.1,66.4,51.4,50.9,42.9,37.1,82,45,22,30.06,29.92,6,1,12,0.00
2013-9-30,88.2,65.9,41.9,53.6,44.2,35.5,98,56,16,30.07,29.84,4,1,12,0.00
2013-10-1,91.3,65.7,46.9,64.0,52.6,43.3,89,66,31,29.89,29.62,9,2,24,0.03
2013-10-2,79.8,63.9,42.0,49.8,42.0,35.5,92,50,21,30.04,29.78,6,1,17,0.00
2013-10-3,70.8,57.3,45.4,47.8,43.0,38.3,89,61,33,30.11,29.72,6,2,15,0.05
2013-10-4,71.1,57.5,41.5,49.3,43.9,39.2,93,64,38,30.21,30.07,4,1,12,0.00
2013-10-5,87.9,65.0,41.0,54.4,43.9,34.3,97,57,17,30.13,29.83,4,1,14,0.00
2013-10-6,92.8,68.2,42.1,49.7,40.3,29.6,89,46,11,29.90,29.64,5,1,17,0.00
2013-10-7,75.4,63.1,49.3,54.3,47.4,39.0,77,58,36,29.94,29.67,5,2,14,0.00
2013-10-8,76.8,62.4,47.3,55.7,49.8,40.7,97,67,30,30.11,29.89,6,1,13,0.00
2013-10-9,89.0,64.6,40.1,54.8,44.5,36.7,97,59,16,30.15,29.90,4,1,10,0.00
2013-10-10,95.2,75.1,46.4,45.2,41.6,34.6,83,38,13,29.96,29.63,7,2,22,0.00
2013-10-11,82.7,69.4,57.4,60.3,54.4,39.2,88,62,22,30.00,29.61,6,2,14,0.00
2013-10-12,93.5,69.7,46.3,64.0,51.9,34.5,97,63,13,30.03,29.73,5,1,12,0.00
2013-10-13,97.0,78.4,57.0,59.2,49.5,27.5,95,48,9,29.74,29.41,9,3,25,0.02
2013-10-14,76.0,62.1,51.4,60.3,45.4,33.7,92,57,22,30.13,29.68,6,2,12,0.07
2013-10-15,78.8,59.9,37.5,45.5,38.6,33.4,95,53,20,30.24,30.06,4,1,11,0.00
2013-10-16,87.1,64.8,38.9,47.0,37.3,26.5,95,47,13,30.14,29.89,5,1,18,0.00
2013-10-17,95.0,72.3,45.3,54.9,41.7,19.1,87,42,8,29.98,29.63,9,3,25,0.00
2013-10-18,67.4,62.1,49.9,48.7,40.4,27.8,83,47,26,30.35,30.03,6,2,12,0.00
2013-10-19,78.6,61.8,42.9,57.2,48.5,41.6,97,67,34,30.36,30.19,7,2,15,0.00
2013-10-20,90.0,70.5,49.3,61.4,53.3,42.6,98,63,20,30.23,29.95,5,1,12,0.00
2013-10-21,98.5,76.9,51.8,62.2,53.0,44.6,97,54,17,30.03,29.84,4,1,12,0.00
2013-10-22,92.0,76.1,60.5,67.4,61.3,54.8,84,62,37,29.97,29.82,5,1,13,0.00
2013-10-23,96.3,81.8,65.6,63.7,53.6,30.9,87,45,14,29.81,29.60,8,3,24,0.00
2013-10-24,82.0,69.6,54.3,47.8,38.3,21.4,75,37,11,30.12,29.82,9,2,22,0.00
2013-10-25,80.5,60.2,37.9,50.6,36.3,14.8,84,48,9,30.24,30.04,5,1,13,0.00
2013-10-26,78.8,61.7,43.8,53.6,44.6,33.5,94,61,20,30.19,30.05,5,1,11,0.00
2013-10-27,82.3,64.7,46.8,56.9,50.8,40.4,97,66,24,30.22,30.07,6,1,13,0.00
2013-10-28,86.0,68.4,52.5,59.6,54.3,45.0,95,66,26,30.16,29.87,4,1,10,0.00
2013-10-29,93.3,64.6,52.4,60.2,55.8,50.5,95,78,28,30.00,29.63,8,1,19,0.39
2013-10-30,72.7,63.2,52.4,54.3,52.0,48.9,89,69,47,30.13,29.99,4,1,11,0.00
2013-10-31,80.8,64.2,47.0,56.7,51.4,45.9,97,68,33,30.19,30.04,6,1,13,0.00
2013-11-1,80.0,68.3,55.5,59.8,57.2,52.5,93,69,45,30.22,30.07,5,1,12,0.00
2013-11-2,95.9,74.4,50.6,62.2,50.1,33.8,97,54,13,30.12,29.84,5,1,13,0.00
2013-11-3,96.6,75.8,53.7,58.9,47.9,22.0,91,47,9,30.09,29.72,9,2,22,0.00
2013-11-4,71.2,62.0,52.9,50.6,44.2,35.1,78,54,27,30.33,30.07,6,2,17,0.00
2013-11-5,68.8,60.9,49.8,51.2,47.9,43.1,88,63,50,30.36,30.26,3,1,9,0.00
2013-11-6,81.3,62.8,44.1,56.4,49.9,42.8,97,67,34,30.29,30.05,6,2,13,0.00
2013-11-7,94.9,71.1,46.9,59.1,52.3,45.5,97,60,21,30.08,29.84,7,1,14,0.00
2013-11-8,102.0,79.6,51.8,58.3,51.2,44.1,94,47,15,29.90,29.65,5,1,14,0.00
2013-11-9,99.4,78.9,65.2,61.6,57.1,49.1,76,51,21,29.94,29.63,8,2,21,0.00
2013-11-10,73.0,64.8,58.8,58.0,55.2,50.3,94,72,48,30.06,29.94,5,2,13,0.21
2013-11-11,69.7,63.0,58.3,63.7,60.3,56.6,97,91,75,30.05,29.93,4,1,12,0.64
2013-11-12,78.6,64.5,56.8,63.9,60.1,55.8,97,87,59,29.97,29.83,4,1,9,0.33
2013-11-13,89.6,70.3,54.5,64.8,51.0,32.4,97,62,14,29.98,29.81,5,1,13,0.01
2013-11-14,90.0,70.6,51.0,56.1,49.8,31.8,94,55,13,29.97,29.80,5,1,13,0.00
2013-11-15,79.3,68.3,58.7,61.2,57.3,53.5,93,70,45,29.98,29.88,5,1,13,0.06
2013-11-16,70.8,64.2,56.8,60.9,56.1,53.1,94,76,56,29.99,29.90,5,1,12,0.02
2013-11-17,63.4,58.8,56.3,57.7,55.9,54.5,97,90,77,29.98,29.93,2,1,9,1.59
2013-11-18,66.8,58.5,55.5,65.7,57.6,54.7,98,97,93,29.94,29.74,5,1,16,1.59
2013-11-19,77.0,66.6,57.2,64.4,60.5,56.1,97,82,61,29.87,29.79,4,1,11,0.06
2013-11-20,83.0,68.4,53.6,65.9,60.4,52.8,98,78,53,29.90,29.80,5,1,11,0.00
2013-11-21,85.0,72.0,57.7,67.8,62.8,56.6,98,75,51,29.89,29.76,6,2,12,0.01
2013-11-22,74.3,68.2,64.5,68.1,63.7,61.6,95,86,73,29.84,29.69,7,2,15,0.79
2013-11-23,73.3,64.6,59.1,67.2,62.0,58.0,98,92,71,29.75,29.59,5,0,8,0.61
2013-11-24,82.3,67.0,52.6,61.8,55.9,49.8,98,72,35,29.78,29.63,5,1,12,0.01
2013-11-25,81.3,64.8,56.5,63.8,57.0,49.1,95,77,42,29.96,29.71,5,1,12,0.08
2013-11-26,76.0,64.0,52.6,55.4,51.3,48.2,91,65,42,30.06,29.93,5,2,11,0.00
2013-11-27,81.8,65.7,48.9,57.8,53.2,47.6,98,68,35,30.07,29.92,5,1,12,0.00
2013-11-28,96.1,74.1,52.0,63.5,55.6,48.3,97,60,21,29.98,29.62,4,1,11,0.00
2013-11-29,79.7,66.7,61.3,66.5,60.7,54.2,96,82,46,29.95,29.52,5,1,10,0.92
2013-11-30,72.7,63.1,53.0,58.1,54.7,51.2,95,75,57,30.22,29.93,5,2,14,0.00
2013-12-1,74.6,63.7,51.8,59.1,54.9,50.3,96,75,52,30.27,30.19,5,1,11,0.00
2013-12-2,80.0,66.0,50.7,58.8,54.7,49.3,97,70,44,30.25,30.06,5,1,11,0.00
2013-12-3,84.5,68.0,51.0,62.0,55.9,47.4,97,70,30,30.09,29.86,5,1,11,0.00
2013-12-4,94.8,74.7,52.9,64.5,56.5,44.5,97,61,20,29.87,29.45,5,1,16,0.00
2013-12-5,82.2,71.2,56.1,71.7,54.6,37.2,90,60,26,29.76,29.39,14,3,29,0.05
2013-12-6,77.6,62.9,49.3,48.5,43.5,38.3,82,52,25,30.08,29.76,6,2,20,0.00
2013-12-7,82.2,66.0,47.3,56.8,50.9,45.1,96,62,35,30.15,30.03,6,1,14,0.00
2013-12-8,90.2,71.9,51.7,61.1,53.8,46.5,94,58,24,30.10,29.85,5,1,12,0.00
2013-12-9,97.5,78.6,57.4,65.2,57.7,51.4,92,55,24,29.89,29.59,5,1,15,0.00
2013-12-10,96.0,83.7,67.5,65.3,59.5,48.3,74,47,21,29.74,29.55,20,2,21,0.00
2013-12-11,91.8,74.6,59.2,65.9,58.2,40.8,94,63,18,29.81,29.60,14,1,14,0.00
2013-12-12,83.4,72.2,59.3,65.7,61.2,56.1,93,70,48,29.86,29.77,14,2,14,0.00
2013-12-13,92.0,74.6,57.0,68.3,62.9,55.6,97,70,36,29.89,29.75,14,1,14,0.00
2013-12-14,83.3,71.5,60.4,67.4,62.9,58.6,96,76,51,30.06,29.80,15,2,16,0.00
2013-12-15,80.2,69.8,58.7,64.4,60.9,57.0,96,75,55,30.10,29.97,13,2,13,0.00
2013-12-16,80.7,70.5,58.9,65.8,61.5,57.1,96,75,54,30.16,30.03,15,2,15,0.00
2013-12-17,84.3,71.3,56.3,63.5,59.8,54.8,97,70,42,30.17,30.06,14,2,14,0.00
2013-12-18,83.3,70.7,58.0,64.5,59.2,56.3,96,70,43,30.23,30.12,13,1,13,0.00
2013-12-19,91.3,73.3,55.3,66.9,59.7,51.3,96,67,27,30.20,30.02,12,1,12,0.00
2013-12-20,104.3,83.4,58.4,66.3,58.7,51.9,96,52,19,30.05,29.83,9,1,9,0.00
2013-12-21,87.8,79.0,70.7,72.3,67.4,63.1,84,68,57,30.01,29.85,13,2,14,0.01
2013-12-22,102.5,84.1,70.1,72.9,66.9,60.1,92,62,27,30.00,29.74,14,1,14,0.00
2013-12-23,98.3,82.6,65.6,67.9,61.9,54.7,90,54,29,29.85,29.66,17,1,17,0.00
2013-12-24,74.6,68.2,65.7,66.9,63.7,61.6,93,86,77,30.12,29.86,6,1,8,0.09
2013-12-25,70.7,67.5,64.9,67.0,64.7,61.9,96,91,84,30.10,29.92,8,1,8,0.45
2013-12-26,85.2,73.1,66.1,67.8,65.1,61.3,97,78,49,29.91,29.77,12,1,13,0.07
2013-12-27,83.3,71.8,60.6,66.4,62.7,58.9,96,75,51,29.92,29.79,13,1,13,0.00
2013-12-28,87.3,73.8,60.1,69.5,64.8,58.4,95,75,51,29.90,29.67,11,1,11,0.00
2013-12-29,79.3,70.3,60.4,68.1,60.2,52.8,97,72,49,30.00,29.59,16,2,16,0.00
2013-12-30,80.3,69.2,57.0,59.2,56.9,53.5,91,67,45,29.99,29.83,13,2,13,0.00
2013-12-31,90.8,72.3,55.2,65.3,60.1,53.4,95,69,29,30.01,29.79,16,1,16,0.00
2014-1-1,93.2,76.2,61.4,67.1,64.5,59.6,96,70,35,30.01,29.78,11,1,11,0.00
2014-1-2,100.3,83.6,69.1,71.7,62.3,47.1,88,56,18,29.75,29.58,14,1,14,0.00